Starlink 6196

operational
NORAD ID: 56487 Int'l Des: 2023-064 Owner: SPXS Country: US Constellation: starlink
LEOCIRCULAR

Starlink 6196について

説明を読み込み中...

リアルタイム位置

3D地球を読み込み中...

次回通過

高度履歴

Altitude vs Time

uPlot chart will show altitude changes over time

軌道要素

1 56487U 23064AR 25260.02942883 -.00000373 00000-0 -23491-4 0 9994
2 56487 70.0008 182.1710 0002863 264.6014 95.4819 14.98325604130225
Epoch: Sep 17, 2025 • Age: 15 hours

現在のステータス

高度 583.2 km
速度 7.57 km/s
衛星直下点 59.12°N, 92.02°E
打ち上げ日 May 10, 2023
運用期間 2.3 years
タイプ internet

技術仕様

分類 Payload
質量 305.00 kg
乾燥質量 290.00 kg
総質量 305.00 kg
長さ 0.20 m
直径 2.80 m
スパン 9.00 m
形状 Box + pan
製造者 SPXS
バスタイプ Starlink
フェーズステータス In Orbit
所有者/国 SPXS/US

大規模コンステレーション

Loading constellations...